Location: Croissy-Beaubourg
(48.8283°N, 2.6696°E)
Time: 05:31:40
(UTC+00:00)

Cosmos 2344 - Visible Passes

Search period start: 21 May 2022 00:00
Search period end: 31 May 2022 00:00
Orbit: 1229 x 3014 km, 63.3° (Epoch: 20 May)

Date Brightness Start Highest point End Pass type
(mag) Time Alt. Az. Time Alt. Az. Time Alt. Az.
21 May 5.6 02:04:29 10° NW 02:11:18 31° N 02:19:35 10° ENE visible
21 May 3.5 21:21:48 10° SSW 21:29:09 62° ESE 21:36:42 10° NE visible
21 May 4.7 23:37:02 10° W 23:43:58 42° NNW 23:51:46 10° NE visible
22 May 5.6 01:54:12 10° NW 02:01:01 31° N 02:09:19 10° ENE visible
22 May 3.5 21:11:31 10° SSW 21:18:52 62° ESE 21:26:25 10° NE visible
22 May 4.7 23:26:46 10° W 23:33:42 42° NNW 23:41:30 10° NE visible
23 May 5.6 01:43:56 10° NW 01:50:45 31° N 01:59:03 10° ENE visible
23 May 3.5 21:01:14 10° SSW 21:08:35 62° ESE 21:16:08 10° NE visible
23 May 4.8 23:16:30 10° W 23:23:25 42° NNW 23:31:13 10° NE visible
24 May 5.6 01:33:39 10° NW 01:40:28 31° N 01:48:47 10° ENE visible
24 May 3.5 20:50:57 10° SSW 20:58:18 63° ESE 21:05:52 10° NE visible
24 May 4.8 23:06:13 10° W 23:13:09 42° NNW 23:20:57 10° NE visible
25 May 5.6 01:23:23 10° NW 01:30:12 31° N 01:38:30 10° ENE visible
25 May 3.5 20:40:40 10° SSW 20:48:02 63° ESE 20:55:35 10° NE visible
25 May 4.8 22:55:57 10° W 23:02:53 42° NNW 23:10:40 10° NE visible
26 May 5.6 01:13:06 10° NW 01:19:56 31° N 01:28:14 10° ENE visible
26 May 3.5 20:30:23 10° SSW 20:37:45 63° ESE 20:45:18 10° NE visible
26 May 4.8 22:45:41 10° W 22:52:36 42° NNW 23:00:24 10° NE visible
27 May 5.6 01:02:51 10° NW 01:09:40 31° N 01:17:58 10° ENE visible
27 May 3.5 20:20:06 10° SSW 20:27:28 63° SE 20:35:02 10° NE visible
27 May 4.9 22:35:24 10° W 22:42:20 42° NNW 22:50:07 10° NE visible
28 May 5.6 00:52:34 10° NW 00:59:23 31° N 01:07:42 10° ENE visible
28 May 4.9 03:07:39 10° NW 03:16:01 58° NE 03:27:23 10° ESE visible
28 May 3.5 20:09:49 10° SSW 20:17:11 63° SE 20:24:45 10° NE visible
28 May 4.9 22:25:08 10° W 22:32:03 41° NNW 22:39:51 10° NE visible
29 May 5.6 00:42:18 10° NW 00:49:07 31° N 00:57:26 10° ENE visible
29 May 4.9 02:57:22 10° NW 03:05:44 59° NE 03:17:07 10° ESE visible
29 May 4.9 22:14:52 10° W 22:21:47 41° NNW 22:29:34 10° NE visible
30 May 5.6 00:32:01 10° NW 00:38:51 31° N 00:47:10 10° ENE visible
30 May 4.9 02:47:06 10° NW 02:55:27 59° NE 03:06:51 10° ESE visible
30 May 4.9 22:04:35 10° W 22:11:31 41° NNW 22:19:17 10° NE visible
